Regional Weather Roundup
Issued by NWS

Home | Current Version | Previous Version | Text Only | Print | Product List | Glossary Off
Versions: 1 2 3 4 5 6 7 8 9 10 11 12 13 14 15 16 17 18 19 20 21 22 23 24 25 26 27 28 29 30 31 32 33 34 35 36 37 38 39 40 41 42 43 44 45 46 47 48 49 50

000
ASUS45 KSLC 220210
RWRUT

UTAH REGIONAL WEATHER ROUNDUP
NATIONAL WEATHER SERVICE SALT LAKE CITY UT
800 PM MDT MON JUL 21 2014

UTZ001>011-023>025-220300-

NORTHERN UTAH

CITY           SKY/WX    TMP DP  RH WIND       PRES   REMARKS
HILL AFB       CLEAR     87  41  20 NE3       30.06R
LOGAN          NOT AVBL
OGDEN          CLEAR     89  37  16 N5        30.02R
PROVO AIRPORT  PTCLDY    86  54  32 SW12      30.07R
SALT LAKE CITY MOCLDY    91  27  10 S9        30.00R
VERNAL         CLEAR     88  31  13 SW5       30.09R
WENDOVER       PTCLDY    84  46  26 NW6       30.01S
HEBER CITY     CLEAR     82  28  14 SW12G20   30.14S
WEST JORDAN    CLEAR     90  45  20 S14       30.05R

$$

UTZ012>022-026-027-220300-

SOUTHERN UTAH

CITY           SKY/WX    TMP DP  RH WIND       PRES   REMARKS
BRYCE CANYON   CLEAR     76  28  17 W13G18    30.37R
CEDAR CITY     CLEAR     84  27  12 SW13      30.20R
MILFORD        CLEAR     87  21   9 SW17      30.14R
MOAB/CYNLANDS  CLEAR     93  20   7 SW12      30.04S
PRICE          CLEAR     89  20   8 S7        30.14S
ST GEORGE      CLEAR     97  34  11 W12       30.00S HX  91
KANAB            N/A     88  28  11 SW10      30.18S

$$

REGIONAL REPORTS     COLORADO/ARIZONA

CITY           SKY/WX    TMP DP  RH WIND       PRES   REMARKS
CRAIG, CO      PTCLDY    75  45  34 S12       30.19F
GRAND JUNCTION CLEAR     90  17   7 NW14      30.08R
RIFLE          CLEAR     89  32  13 W8        30.13R
MONTROSE       PTCLDY    88  30  12 SW5       30.19R
CORTEZ         CLEAR     86  29  12 W6        30.22S
PAGE, AZ       CLEAR     97  27   8 N10       30.07R HX  91
GRAND CANYON   CLEAR     80  30  16 W10       30.32R
KINGMAN        NOT AVBL
FLAGSTAFF      CLEAR     78  35  21 W9        30.35R

$$

REGIONAL REPORTS    NEVADA/IDAHO/WYOMING

CITY           SKY/WX    TMP DP  RH WIND       PRES   REMARKS
LAS VEGAS, NV  CLEAR    102  27   7 S12       29.87S HX  95
ELY            SUNNY     83  18   9 S12G24    30.19R
ELKO           MOSUNNY   82  43  25 W15       30.10R
POCATELLO, ID  MOCLDY    73  46  38 S16       30.10S THUNDER
BURLEY         SUNNY     73  57  57 W8        30.09R
EVANSTON, WY   CLEAR     76  25  15 SW14      30.27R
ROCK SPRINGS   CLEAR     82  30  15 NW14      30.22R

$$


USA.gov is the U.S. government's official web portal to all federal, state and local government web resources and services.